GW6569 Weather Reports


time (UTC)temp
C
wind
direction
speed
KPH
gust
KPH
rain 1hr
cm
rain 24hr
cm
rain mn
cm
humidity
%
barometer
mb
20260507170052 11 71 6.4 16.1 0.36 1.22 1.22 92 1012.1
20260507165514 12 53 6.4 17.7 0.43 1.19 1.19 92 1012.2
20260507165012 12 29 8.0 16.1 0.48 1.19 1.19 93 1012.1
20260507164535 12 53 8.0 16.1 0.48 1.14 1.14 93 1011.8
20260507164012 12 36 9.7 19.3 0.46 1.14 1.14 92 1011.7
20260507163514 12 52 9.7 19.3 0.46 1.12 1.12 92 1011.7
20260507163036 12 46 11.3 24.1 0.43 1.07 1.07 92 1011.7
20260507162512 11 55 11.3 25.7 0.46 1.04 1.04 92 1011.9
20260507162014 12 38 14.5 24.1 0.46 0.99 0.99 92 1011.6
20260507161549 12 38 9.7 17.7 0.48 0.97 0.97 92 1011.9
20260507161015 12 53 9.7 19.3 0.53 0.91 0.91 92 1011.9
20260507160512 12 58 9.7 22.5 0.61 0.89 0.89 92 1012.2
20260507160040 12 39 9.7 22.5 0.64 0.81 0.81 92 1012.0
20260507155513 12 352 8.0 20.9 0.64 0.74 0.74 92 1011.9
20260507155012 12 46 12.9 19.3 0.61 0.71 0.71 93 1011.8
20260507154534 12 33 8.0 20.9 0.61 0.66 0.66 93 1011.9
20260507154017 12 46 12.9 22.5 0.61 0.66 0.66 92 1011.5
20260507153513 11 76 11.3 20.9 0.56 0.66 0.66 92 1011.0
20260507153047 11 67 8.0 24.1 0.53 0.61 0.61 92 1011.8
20260507152511 11 19 14.5 25.7 0.48 0.56 0.56 91 1012.1
20260507152014 11 11 14.5 25.7 0.46 0.48 0.48 91 1012.1
20260507151535 12 19 14.5 24.1 0.41 0.46 0.46 90 1012.1
20260507151018 12 30 9.7 22.5 0.33 0.36 0.36 90 1012.3
20260507150516 12 34 11.3 22.5 0.23 0.23 0.23 90 1012.4
20260507150043 12 40 9.7 19.3 0.10 0.15 0.15 90 1012.7
20260507145515 12 38 6.4 24.1 0.10 0.10 0.10 90 1012.5
20260507145016 12 13 9.7 25.7 0.08 0.10 0.10 89 1012.4
20260507144537 12 77 9.7 25.7 0.05 0.08 0.08 88 1012.3
20260507144014 12 40 12.9 25.7 0.05 0.08 0.08 89 1012.2
20260507143516 13 345 14.5 29.0 0.05 0.08 0.08 89 1012.1
20260507143037 13 57 9.7 29.0 0.05 0.08 0.08 89 1011.8
20260507142516 13 51 14.5 27.4 0.03 0.05 0.05 88 1011.9
20260507142013 13 78 8.0 24.1 0.03 0.05 0.05 89 1012.0
20260507141547 13 70 11.3 27.4 0.03 0.05 0.05 89 1011.9
20260507141014 13 24 11.3 35.4 0.00 0.03 0.03 90 1011.9
20260507140516 13 64 12.9 30.6 0.00 0.03 0.03 90 1012.0
20260507140042 14 56 14.5 30.6 0.00 0.03 0.03 91 1011.6
20260507135514 14 60 8.0 22.5 0.00 0.03 0.03 92 1011.6
20260507135014 14 94 8.0 19.3 0.00 0.03 0.03 92 1011.9
20260507134540 14 331 6.4 16.1 0.00 0.03 0.03 92 1011.9
20260507134014 14 341 6.4 19.3 0.00 0.03 0.03 92 1011.7
20260507133515 14 360 9.7 22.5 0.00 0.03 0.03 92 1011.6
20260507133044 14 47 11.3 24.1 0.00 0.03 0.03 92 1011.6
20260507132515 14 76 9.7 24.1 0.00 0.03 0.03 92 1011.5
20260507132017 14 89 12.9 27.4 0.00 0.03 0.03 92 1011.5
20260507131546 -17 40.2 0.0 0.00 0.03 0.03 1011.5
20260507131014 -17 40.2 0.0 0.00 0.03 0.03 1011.7
20260507130517 -17 40.2 0.0 0.00 0.03 0.03 1011.4
20260507130038 -17 40.2 0.0 0.00 0.03 0.03 1011.5
20260507125514 -17 40.2 0.0 0.00 0.03 0.03 1011.9
20260507125016 -17 40.2 0.0 0.00 0.03 0.03 1011.7
20260507124551 -17 40.2 0.0 0.00 0.03 0.03 1012.0
20260507124014 -17 40.2 0.0 0.00 0.03 0.03 1011.9
20260507123515 -17 40.2 0.0 0.00 0.03 0.03 1011.8
20260507123050 -17 40.2 0.0 0.00 0.03 0.03 1011.8
20260507122518 -17 40.2 0.0 0.00 0.03 0.03 1011.8
20260507122016 -17 40.2 0.0 0.00 0.03 0.03 1011.6
20260507121554 -17 40.2 0.0 0.00 0.03 0.03 1011.7
20260507121015 -17 40.2 0.0 0.00 0.03 0.03 1011.6
20260507120514 -17 40.2 0.0 0.00 0.03 0.03 1011.8
20260507120043 -17 40.2 0.0 0.00 0.03 0.03 1011.6
20260507115517 -17 40.2 0.0 0.00 0.03 0.03 1012.1
20260507115013 -17 40.2 0.0 0.00 0.03 0.03 1011.9
20260507114544 -17 40.2 0.0 0.00 0.03 0.03 1011.6
20260507114014 -17 40.2 0.0 0.00 0.03 0.03 1011.4
20260507113512 -17 40.2 0.0 0.00 0.03 0.03 1011.7
20260507113052 -17 40.2 0.0 0.00 0.03 0.03 1011.2
20260507112518 -17 40.2 0.0 0.00 0.03 0.03 1011.1
20260507112015 -17 40.2 0.0 0.00 0.03 0.03 1011.2
20260507111546 -17 40.2 0.0 0.00 0.03 0.03 1011.2
20260507111015 -17 40.2 0.0 0.00 0.03 0.03 1011.0
20260507110515 -17 40.2 0.0 0.00 0.03 0.03 1011.0
20260507110100 -17 40.2 0.0 0.00 0.03 0.03 1011.1
20260507105514 -17 40.2 0.0 0.00 0.03 0.03 1011.0
20260507105013 -17 40.2 0.0 0.00 0.03 0.03 1010.7
20260507104557 -17 40.2 0.0 0.00 0.03 0.03 1010.9
20260507104014 -17 40.2 0.0 0.00 0.03 0.03 1010.9
20260507103513 -17 40.2 0.0 0.00 0.03 0.03 1010.9
20260507103112 -17 40.2 0.0 0.00 0.03 0.03 1010.8
20260507102516 -17 40.2 0.0 0.00 0.03 0.03 1010.9
20260507102014 -17 40.2 0.0 0.00 0.03 0.03 1010.6
20260507101550 -17 40.2 0.0 0.00 0.03 0.03 1010.8
20260507101014 -17 40.2 0.0 0.00 0.03 0.03 1010.7
20260507100515 -17 40.2 0.0 0.00 0.03 0.03 1010.8
20260507100107 -17 40.2 0.0 0.00 0.03 0.03 1010.8
20260507095516 -17 40.2 0.0 0.00 0.03 0.03 1010.7
20260507095016 -17 40.2 0.0 0.00 0.03 0.03 1010.5
20260507094550 -17 40.2 0.0 0.00 0.03 0.03 1010.1
20260507094014 -17 40.2 0.0 0.00 0.03 0.03 1009.7
20260507093518 -17 40.2 0.0 0.00 0.03 0.03 1009.7
20260507093053 -17 40.2 0.0 0.00 0.03 0.03 1009.7
20260507092514 -17 40.2 0.0 0.00 0.03 0.03 1009.9
20260507092015 -17 40.2 0.0 0.00 0.03 0.03 1009.9
20260507091550 -17 40.2 0.0 0.00 0.03 0.03 1010.0
20260507091016 -17 40.2 0.0 0.00 0.03 0.03 1010.0
20260507090516 -17 40.2 0.0 0.00 0.03 0.03 1009.7
20260507090057 -17 40.2 0.0 0.00 0.03 0.03 1010.1
20260507085515 20 260 40.2 25.7 0.00 0.03 0.03 83 1010.0
20260507085017 20 260 40.2 25.7 0.00 0.03 0.03 83 1010.0
20260507084549 -17 205 40.2 25.7 0.00 0.03 0.03 1010.2
20260507084014 -17 40.2 0.0 0.00 0.03 0.03 1010.1
20260507083519 -17 40.2 0.0 0.00 0.03 0.03 1010.2
20260507083051 -17 40.2 0.0 0.03 0.03 0.03 1010.3
20260507082516 -17 40.2 0.0 0.03 0.03 0.03 1010.3
20260507082014 -17 40.2 0.0 0.03 0.03 0.03 1010.4
20260507081559 -17 40.2 0.0 0.03 0.03 0.03 1010.4
20260507081019 -17 40.2 0.0 0.03 0.03 0.03 1010.4
20260507080516 20 205 6.4 20.9 0.03 0.03 0.03 83 1010.4
20260507080100 20 205 6.4 20.9 0.03 0.03 0.03 83 1010.6
20260507075516 20 236 6.4 20.9 0.03 0.03 0.03 1010.7
20260507075015 20 210 6.4 20.9 0.03 0.03 0.03 1010.8
20260507074552 20 198 6.4 12.9 0.03 0.03 0.03 1011.2
20260507074016 20 187 4.8 11.3 0.03 0.03 0.03 83 1010.8
20260507073516 20 258 3.2 11.3 0.03 0.03 0.03 84 1010.9
20260507073054 20 209 1.6 17.7 0.00 0.00 0.00 84 1010.8
20260507072516 20 209 4.8 17.7 0.00 0.00 0.00 84 1010.9
20260507072015 20 195 1.6 11.3 0.00 0.00 0.00 83 1011.0
20260507071557 20 194 3.2 11.3 0.00 0.00 0.00 83 1010.9
20260507071014 20 194 4.8 9.7 0.00 0.00 0.00 83 1010.7
20260507070518 20 178 1.6 12.9 0.00 0.00 0.00 83 1010.8
20260507070105 20 173 6.4 12.9 0.00 0.00 0.00 83 1010.7
20260507065515 20 204 3.2 12.9 0.00 0.00 0.00 83 1010.6
20260507065015 20 202 6.4 12.9 0.00 0.00 0.00 83 1010.5
20260507064554 20 162 4.8 9.7 0.00 0.00 0.00 82 1010.2
20260507064014 20 178 4.8 12.9 0.00 0.00 0.00 82 1010.2
20260507063514 20 200 4.8 14.5 0.00 0.00 0.00 81 1010.3
20260507063043 20 165 4.8 14.5 0.00 0.00 0.00 81 1010.2
20260507062515 20 215 6.4 12.9 0.00 0.00 0.00 81 1010.0
20260507062202 20 161 4.8 12.9 0.00 0.00 0.00 81 1010.4
20260507061528 20 198 4.8 12.9 0.00 0.00 0.00 81 1010.6
20260507061012 20 197 6.4 12.9 0.00 0.00 0.00 80 1010.9
20260507060510 20 167 4.8 12.9 0.00 0.00 0.00 80 1011.2
20260507060033 20 198 4.8 11.3 0.00 0.00 0.00 80 1011.4
20260507055512 20 183 6.4 11.3 0.00 0.00 0.00 80 1011.7
20260507055011 20 215 4.8 11.3 0.00 0.00 0.00 79 1011.6
20260507054540 20 211 3.2 8.0 0.00 0.00 0.00 79 1011.6
20260507054014 20 360 0.0 11.3 0.00 0.00 0.00 78 1011.7
20260507053511 20 360 1.6 11.3 0.00 0.00 0.00 77 1011.6
20260507053030 21 202 3.2 11.3 0.00 0.00 0.00 77 1011.7
20260507052513 21 219 4.8 11.3 0.00 0.00 0.00 76 1011.9
20260507052011 21 360 3.2 9.7 0.00 0.00 0.00 76 1011.9
20260507051531 21 196 3.2 11.3 0.00 0.00 0.00 76 1011.9
20260507051012 21 203 4.8 12.9 0.00 0.00 0.00 75 1012.1
20260507050509 21 360 6.4 12.9 0.00 0.00 0.00 74 1011.9
20260507050042 21 187 4.8 12.9 0.00 0.00 0.00 74 1011.8
20260507045512 21 188 3.2 14.5 0.00 0.00 0.00 72 1011.7
20260507045013 21 360 4.8 11.3 0.00 0.00 0.00 72 1011.6
20260507044539 21 200 6.4 11.3 0.00 0.00 0.00 72 1011.5
20260507044012 21 211 4.8 11.3 0.00 0.00 0.00 72 1011.6
20260507043512 21 199 4.8 11.3 0.00 0.00 0.00 71 1011.5
20260507043038 21 227 4.8 11.3 0.00 0.00 0.00 71 1011.8
20260507042512 21 217 6.4 12.9 0.00 0.00 0.00 71 1011.8
20260507042012 21 215 1.6 9.7 0.00 0.00 0.00 71 1011.9
20260507041533 21 219 3.2 12.9 0.00 0.00 0.00 71 1011.8
20260507041012 21 360 6.4 12.9 0.00 0.00 0.00 71 1011.7
20260507040512 21 360 3.2 16.1 0.00 0.00 0.00 71 1011.7
20260507040040 21 360 4.8 16.1 0.00 0.00 0.00 71 1011.6
20260507035513 21 186 4.8 9.7 0.00 0.00 0.00 72 1011.7
20260507035013 21 168 3.2 6.4 0.00 0.00 0.00 72 1011.5
20260507034536 21 218 1.6 6.4 0.00 0.00 0.00 72 1011.3
20260507034011 21 360 3.2 9.7 0.00 0.00 0.00 72 1011.1
20260507033513 21 203 3.2 8.0 0.00 0.00 0.00 72 1011.1
20260507033039 21 360 0.0 4.8 0.00 0.00 0.00 71 1011.3
20260507032513 21 200 0.0 4.8 0.00 0.00 0.00 71 1011.3
20260507032013 22 248 0.0 6.4 0.00 0.00 0.00 70 1011.3
20260507031532 22 195 3.2 6.4 0.00 0.00 0.00 70 1011.3
20260507031011 22 203 0.0 4.8 0.00 0.00 0.00 69 1011.2
20260507030513 22 221 0.0 6.4 0.00 0.00 0.00 69 1011.5
20260507030037 22 217 0.0 9.7 0.00 0.00 0.00 69 1011.8
20260507025512 22 205 3.2 9.7 0.00 0.00 0.00 69 1011.8
20260507025013 22 202 1.6 11.3 0.00 0.00 0.00 69 1011.8
20260507024538 22 179 4.8 11.3 0.00 0.00 0.00 68 1011.9
20260507024012 22 174 4.8 12.9 0.00 0.00 0.00 68 1011.9
20260507023515 22 217 4.8 16.1 0.00 0.00 0.00 69 1012.0
20260507023030 22 196 4.8 17.7 0.00 0.00 0.00 69 1011.9
20260507022512 22 177 3.2 12.9 0.00 0.00 0.00 69 1011.9
20260507022013 22 170 4.8 12.9 0.00 0.00 0.00 69 1011.9
20260507021539 22 185 4.8 12.9 0.00 0.00 0.00 69 1011.9
20260507021013 22 170 3.2 12.9 0.00 0.00 0.00 69 1011.9
20260507020513 22 161 3.2 9.7 0.00 0.00 0.00 69 1012.1
20260507020036 22 207 1.6 8.0 0.00 0.00 0.00 68 1011.9
20260507015512 22 207 1.6 4.8 0.00 0.00 0.00 68 1011.9
20260507015015 22 190 1.6 6.4 0.00 0.00 0.00 68 1012.0
20260507014542 22 162 1.6 6.4 0.00 0.00 0.00 67 1012.1
20260507014011 22 178 1.6 6.4 0.00 0.00 0.00 67 1011.9
20260507013513 22 195 1.6 6.4 0.00 0.00 0.00 67 1012.0
20260507013036 22 219 3.2 6.4 0.00 0.00 0.00 66 1011.8
20260507012513 22 186 1.6 6.4 0.00 0.00 0.00 66 1011.6
20260507012016 22 186 1.6 6.4 0.00 0.00 0.00 66 1012.0
20260507011542 22 180 3.2 6.4 0.00 0.00 0.00 65 1011.8
20260507011014 22 178 1.6 8.0 0.00 0.00 0.00 65 1011.9
20260507010513 22 180 3.2 8.0 0.00 0.00 0.00 65 1011.9
20260507010042 23 181 3.2 6.4 0.00 0.00 0.00 65 1012.0
20260507005513 23 175 1.6 6.4 0.00 0.00 0.00 64 1011.9
20260507005012 23 211 3.2 6.4 0.00 0.00 0.00 64 1011.8
20260507004536 23 189 1.6 6.4 0.00 0.00 0.00 63 1011.9
20260507004014 23 257 1.6 4.8 0.00 0.00 0.00 63 1011.9
20260507003514 23 242 0.0 4.8 0.00 0.00 0.00 63 1011.6
20260507003037 23 210 0.0 4.8 0.00 0.00 0.00 62 1011.7
20260507002514 23 171 1.6 6.4 0.00 0.00 0.00 62 1011.4
20260507002015 23 194 1.6 8.0 0.00 0.00 0.00 62 1011.4
20260507001554 23 227 3.2 8.0 0.00 0.00 0.00 61 1011.4
20260507001014 23 225 0.0 8.0 0.00 0.00 0.00 61 1011.3
20260507000513 23 284 0.0 11.3 0.00 0.00 0.00 60 1011.3
20260507000038 23 198 3.2 11.3 0.00 0.00 0.00 60 1011.2
20260506235514 24 153 1.6 9.7 0.00 0.00 0.00 60 1011.2
20260506235012 24 215 3.2 11.3 0.00 0.00 0.00 60 1011.3
20260506234554 24 203 4.8 11.3 0.00 0.00 0.00 59 1011.4
20260506234015 24 205 1.6 9.7 0.00 0.00 0.00 59 1011.3
20260506233515 24 185 1.6 9.7 0.00 0.00 0.00 59 1011.1
20260506233044 24 183 3.2 8.0 0.00 0.00 0.00 59 1011.2
20260506232512 24 148 1.6 14.5 0.00 0.00 0.00 58 1011.2
20260506232011 25 234 1.6 8.0 0.00 0.00 0.00 58 1010.9
20260506231536 25 256 1.6 6.4 0.00 0.00 0.00 57 1010.8
20260506231015 25 223 0.0 12.9 0.00 0.00 0.00 57 1011.0
20260506230514 25 190 4.8 12.9 0.00 0.00 0.00 57 1010.9
20260506230039 25 225 3.2 12.9 0.00 0.00 0.00 57 1010.9
20260506225513 25 179 3.2 12.9 0.00 0.00 0.00 56 1010.7
20260506225013 25 185 6.4 12.9 0.00 0.00 0.00 56 1010.8
20260506224537 25 205 4.8 11.3 0.00 0.00 0.00 56 1010.8
20260506224012 25 180 3.2 14.5 0.00 0.00 0.00 56 1011.0
20260506223513 25 179 3.2 16.1 0.00 0.00 0.00 56 1011.0
20260506223037 25 221 4.8 16.1 0.00 0.00 0.00 56 1011.0
20260506222513 25 55 1.6 16.1 0.00 0.00 0.00 56 1011.0
20260506222015 25 194 4.8 19.3 0.00 0.00 0.00 56 1010.9
20260506221551 25 180 4.8 20.9 0.00 0.00 0.00 56 1011.0
20260506221013 25 219 6.4 20.9 0.00 0.00 0.00 56 1010.9
20260506220513 25 164 6.4 16.1 0.00 0.00 0.00 57 1010.8
20260506220045 25 159 6.4 17.7 0.00 0.00 0.00 57 1010.9
20260506215514 25 182 8.0 24.1 0.00 0.00 0.00 57 1010.7
20260506215014 25 175 9.7 29.0 0.00 0.00 0.00 56 1010.5
20260506214538 25 186 12.9 29.0 0.00 0.00 0.00 56 1010.6
20260506214013 25 247 9.7 22.5 0.00 0.00 0.00 56 1010.6
20260506213514 25 178 8.0 22.5 0.00 0.00 0.00 56 1010.7
20260506213043 25 171 11.3 27.4 0.00 0.00 0.00 56 1010.8
20260506212513 25 171 9.7 19.3 0.00 0.00 0.00 56 1010.7
20260506212014 25 202 11.3 27.4 0.00 0.00 0.00 56 1010.7
20260506211544 25 217 9.7 32.2 0.00 0.00 0.00 56 1010.4
20260506211013 25 167 11.3 37.0 0.00 0.00 0.00 57 1010.4
20260506210513 25 183 12.9 37.0 0.00 0.00 0.00 57 1010.4
20260506210044 25 188 14.5 27.4 0.00 0.00 0.00 57 1010.6
20260506205512 25 166 12.9 25.7 0.00 0.00 0.00 57 1010.6
20260506205013 25 161 11.3 24.1 0.00 0.00 0.00 58 1010.8
20260506204539 25 182 11.3 24.1 0.00 0.00 0.00 57 1010.8
20260506204011 25 229 9.7 24.1 0.00 0.00 0.00 56 1010.9
20260506203514 25 192 11.3 29.0 0.00 0.00 0.00 55 1010.9
20260506203039 25 182 14.5 27.4 0.00 0.00 0.00 54 1011.0
20260506202515 25 167 17.7 32.2 0.00 0.00 0.00 54 1011.2
20260506202015 25 186 16.1 32.2 0.00 0.00 0.00 56 1011.3
20260506201540 25 180 16.1 32.2 0.00 0.00 0.00 57 1011.4
20260506201014 25 266 6.4 24.1 0.00 0.00 0.00 59 1011.6
20260506200511 25 159 9.7 24.1 0.00 0.00 0.00 59 1011.6
20260506200037 25 203 11.3 24.1 0.00 0.00 0.00 60 1011.7
20260506195514 25 148 14.5 25.7 0.00 0.00 0.00 61 1011.9
20260506195016 25 190 11.3 25.7 0.00 0.00 0.00 61 1011.9
20260506194543 25 180 6.4 22.5 0.00 0.00 0.00 62 1012.0
20260506194015 25 232 8.0 22.5 0.00 0.00 0.00 61 1012.2
20260506193514 25 189 6.4 25.7 0.00 0.00 0.00 61 1012.3
20260506193048 25 193 9.7 24.1 0.00 0.00 0.00 62 1012.3
20260506192517 25 182 12.9 25.7 0.00 0.00 0.00 62 1012.3
20260506192014 25 198 16.1 27.4 0.00 0.00 0.00 61 1012.5
20260506191536 25 202 11.3 27.4 0.00 0.00 0.00 62 1012.4
20260506191014 25 187 9.7 24.1 0.00 0.00 0.00 62 1012.4
20260506190518 24 188 12.9 24.1 0.00 0.00 0.00 62 1012.4
20260506190034 24 187 9.7 17.7 0.00 0.00 0.00 63 1012.5
20260506185514 24 184 8.0 25.7 0.00 0.00 0.00 63 1012.4
20260506185014 24 178 17.7 25.7 0.00 0.00 0.00 63 1012.3
20260506184540 24 223 12.9 25.7 0.00 0.00 0.00 62 1012.7
20260506184013 24 131 12.9 37.0 0.00 0.00 0.00 62 1012.7
20260506183514 24 195 16.1 37.0 0.00 0.00 0.00 62 1012.4
20260506183040 24 223 16.1 35.4 0.00 0.00 0.00 62 1012.5
20260506182515 24 205 19.3 37.0 0.00 0.00 0.00 63 1012.7
20260506182017 24 166 19.3 32.2 0.00 0.00 0.00 63 1012.9
20260506181548 23 167 14.5 27.4 0.00 0.00 0.00 63 1012.9
20260506181013 23 184 11.3 29.0 0.00 0.00 0.00 62 1012.9
20260506180516 23 198 11.3 27.4 0.00 0.00 0.00 63 1013.3
20260506180035 23 145 14.5 27.4 0.00 0.00 0.00 63 1013.1
20260506175516 23 182 11.3 24.1 0.00 0.00 0.00 63 1013.2
20260506175016 23 190 11.3 29.0 0.00 0.00 0.00 63 1013.4
20260506174538 23 202 14.5 29.0 0.00 0.00 0.00 63 1013.6
20260506174019 23 199 17.7 30.6 0.00 0.00 0.00 63 1013.5
20260506173515 23 173 17.7 30.6 0.00 0.00 0.00 63 1013.6
20260506173104 23 192 12.9 29.0 0.00 0.00 0.00 64 1013.6
20260506172513 23 186 16.1 33.8 0.00 0.00 0.00 64 1013.5
20260506172015 23 163 11.3 20.9 0.00 0.00 0.00 65 1013.7
20260506171543 23 167 11.3 20.9 0.00 0.00 0.00 65 1014.1
20260506171017 22 222 9.7 32.2 0.00 0.00 0.00 66 1014.1
20260506170515 22 198 16.1 32.2 0.00 0.00 0.00 65 1014.1